Vorticity
nan nan nan nan nan nan nan nan nan nan nan nan nan nan nan nan nan nan nan nan nan nan nan nan nan nan nan nan nan nan nan nan nan nan nan nan nan nan nan nan nan nan nan nan nan nan nan nan nan nan nan nan nan nan nan nan nan nan nan nan nan nan nan nan nan nan nan nan nan nan nan nan nan nan nan nan nan nan nan nan nan nan nan nan nan nan nan nan nan nan nan nan nan nan nan nan nan nan nan nan nan nan nan
nan 9 8 10 11 12 12 9 7 5 3 3 3 3 4 7 9 11 14 15 15 12 10 9 10 10 10 13 14 12 10 9 9 9 10 9 9 8 6 7 8 9 7 6 7 8 9 8 8 9 10 9 9 8 8 8 9 9 9 8 7 7 7 5 4 5 6 7 10 12 10 7 6 8 9 9 8 9 9 9 9 8 8 8 8 7 7 6 7 8 8 9 10 10 10 9 9 10 10 9 8 7 nan
nan 9 9 10 11 12 13 11 10 8 3 -0 -2 1 5 9 9 10 10 10 8 7 7 8 9 10 10 11 13 13 12 11 10 10 10 9 9 9 9 8 7 5 6 9 12 12 10 10 10 10 9 8 7 6 6 6 7 8 6 5 5 4 3 2 3 5 5 6 9 10 8 7 7 8 8 8 8 8 8 8 8 8 8 8 9 8 7 6 6 8 9 10 11 12 11 9 8 9 9 9 8 7 nan
nan 7 8 8 8 10 10 11 11 12 11 7 3 6 10 10 7 5 5 4 5 7 8 7 8 11 11 10 9 11 13 13 11 10 9 9 8 8 7 7 5 4 8 11 13 11 8 8 8 7 5 5 5 4 3 3 4 3 2 2 2 2 1 1 3 5 7 9 10 11 10 9 9 8 8 8 8 7 7 8 8 8 8 8 8 7 6 7 7 7 8 10 10 11 10 10 9 9 9 9 7 6 nan
nan 5 4 6 7 8 9 9 9 10 14 15 14 14 14 10 6 3 3 5 7 9 9 8 9 11 12 11 9 8 11 13 14 11 7 6 4 3 4 7 7 5 5 7 9 7 6 7 6 5 4 4 4 2 2 3 5 5 4 3 3 3 4 6 9 12 14 15 14 13 11 11 10 9 8 8 8 8 8 8 8 7 6 6 7 6 6 7 8 8 8 9 9 9 9 9 9 9 9 9 8 7 nan
nan 9 6 6 8 8 8 9 9 10 12 13 15 15 11 8 7 6 6 8 8 9 8 9 10 11 11 11 9 8 8 11 13 8 4 3 3 4 8 10 11 8 5 6 7 7 6 7 8 8 8 8 7 5 6 9 12 12 9 8 10 11 11 12 14 17 18 16 14 12 11 10 10 9 9 8 8 8 8 8 7 6 6 6 7 7 6 7 8 8 9 9 9 9 9 8 8 7 9 10 9 7 nan
nan 10 11 8 7 8 7 8 9 11 12 11 10 10 10 9 9 10 9 9 9 9 8 9 10 10 8 9 9 8 6 6 8 7 6 8 11 13 16 17 16 16 14 14 13 11 7 7 8 11 11 10 10 11 13 13 12 12 12 13 14 17 18 17 15 15 14 12 10 9 9 9 9 9 8 8 7 8 8 8 8 8 8 8 7 7 6 7 8 8 8 9 9 9 9 8 6 6 9 9 9 8 nan
nan 7 8 7 6 5 6 7 9 10 11 12 11 11 11 11 11 11 11 11 10 10 10 9 8 6 6 6 7 7 6 5 7 9 10 12 13 14 14 14 13 14 14 13 13 11 9 8 8 10 10 9 9 10 12 11 10 11 11 10 11 14 16 14 12 10 9 8 8 8 8 8 8 7 8 8 8 9 8 8 8 8 8 8 8 7 8 8 9 9 9 9 8 8 8 7 5 6 8 9 9 9 nan
nan 7 7 6 5 5 5 6 8 10 9 8 8 10 9 12 14 15 15 13 11 8 8 7 5 4 5 4 4 5 6 6 8 9 10 10 10 10 9 9 8 8 8 8 8 9 9 8 7 8 8 8 8 8 9 9 10 9 8 7 7 9 10 9 9 9 9 9 9 9 8 8 8 8 8 8 8 8 8 8 8 8 8 8 8 8 9 10 10 10 10 9 7 6 7 7 6 6 8 9 9 9 nan
nan 6 6 6 6 7 6 5 6 7 6 5 4 4 6 9 12 14 12 10 8 6 5 5 5 4 5 5 5 4 4 6 7 9 10 10 10 8 8 8 9 9 8 8 9 9 8 8 8 7 7 7 7 7 8 9 8 8 7 7 7 8 9 9 8 9 9 9 9 9 9 9 8 9 9 9 8 7 7 8 8 8 8 8 8 9 10 10 9 9 9 9 8 6 7 8 8 7 8 8 8 8 nan
nan 7 6 6 6 7 8 6 5 5 6 6 6 3 5 6 6 7 6 6 5 5 4 4 4 5 5 6 6 5 5 5 6 8 9 9 10 10 10 10 10 9 9 8 8 8 8 8 8 8 8 8 7 7 8 8 8 8 8 8 7 7 9 10 9 9 9 10 10 10 10 10 10 9 9 9 8 7 7 8 8 8 8 8 9 9 9 8 8 8 9 9 10 8 6 8 9 9 8 7 7 6 nan
nan 7 7 8 8 8 8 7 7 7 8 7 6 5 6 6 5 5 5 6 5 5 5 5 5 5 6 6 6 5 5 6 7 9 9 7 8 9 10 10 10 10 9 8 7 7 8 8 7 7 7 8 8 8 8 8 8 8 9 8 7 7 8 10 10 9 9 10 10 9 9 9 9 9 9 9 9 8 8 8 8 9 9 8 8 8 8 8 8 8 9 10 11 9 7 8 9 9 8 6 6 7 nan
nan 6 7 8 8 7 6 6 5 5 5 4 4 5 6 6 6 7 7 8 7 6 6 7 7 6 6 7 7 6 6 7 9 10 11 9 8 8 8 8 8 9 8 8 7 6 6 7 7 6 8 9 9 8 8 9 8 8 9 9 8 7 8 9 10 8 8 9 9 9 9 8 8 8 8 9 9 9 9 8 8 9 9 8 8 8 8 8 8 8 9 10 10 9 8 8 8 9 8 7 7 9 nan
nan 5 6 5 4 3 2 3 3 2 2 3 4 7 7 7 6 8 8 8 8 7 7 8 8 8 8 8 8 7 7 9 10 9 10 11 10 8 7 7 7 8 8 7 7 6 6 7 7 7 9 9 9 8 9 9 8 7 9 9 8 7 7 8 9 8 8 8 9 9 9 8 8 8 8 9 9 9 8 8 8 9 9 8 8 8 9 9 9 8 9 9 10 10 9 8 8 9 9 8 7 8 nan
nan 5 6 5 4 3 4 4 5 5 6 8 9 9 8 7 6 6 6 6 7 7 7 8 8 9 8 8 9 8 8 9 10 9 8 9 10 10 8 8 8 7 7 7 7 7 7 7 9 10 10 9 9 8 9 9 8 7 8 9 8 7 7 8 8 8 8 8 8 9 9 9 8 9 9 9 9 8 8 8 8 9 9 8 9 9 9 10 9 8 8 8 8 8 8 8 8 9 8 8 7 7 nan
nan 7 7 7 7 7 8 8 8 9 10 10 10 8 7 6 5 5 5 6 7 7 7 8 8 8 8 9 9 9 9 9 10 9 8 9 10 10 9 8 7 5 5 6 8 8 8 8 9 11 10 9 8 9 9 8 7 7 8 8 8 8 8 8 8 8 8 8 8 9 9 9 9 9 10 10 9 8 8 8 8 8 9 9 9 9 9 9 9 9 8 7 7 8 8 8 8 8 8 9 9 7 nan
nan 8 8 8 8 8 8 8 8 9 8 7 6 7 7 7 7 7 7 8 8 8 8 8 8 8 9 10 10 10 9 10 9 10 10 10 10 9 8 6 6 5 6 7 8 7 8 9 10 10 9 8 8 9 9 8 7 8 9 9 8 8 8 8 8 8 7 8 8 9 9 9 9 9 10 10 10 9 9 9 9 9 9 9 9 9 8 8 9 9 9 8 8 9 9 9 9 7 7 9 10 9 nan
nan 8 7 7 7 7 6 7 7 7 6 6 6 7 7 8 8 9 9 8 8 8 8 7 7 8 9 10 10 10 9 10 9 10 11 12 11 9 7 6 7 7 8 9 8 8 10 11 11 10 9 8 8 9 9 8 7 8 9 9 9 9 8 8 8 8 8 8 9 9 9 9 10 10 11 11 10 10 10 10 10 9 9 9 9 9 8 8 9 10 10 10 10 10 10 10 9 8 7 9 10 10 nan
nan 7 7 8 8 8 7 7 6 6 6 7 8 8 7 7 7 7 8 7 8 7 8 7 7 8 8 9 9 9 9 9 9 9 11 12 11 10 9 9 9 9 9 11 11 13 13 13 12 10 8 8 8 9 9 8 8 8 9 9 9 9 9 8 9 9 8 9 9 9 9 9 11 11 11 10 11 11 10 10 10 10 10 9 9 9 9 9 10 10 10 10 11 10 10 10 9 9 9 10 10 10 nan
nan 8 9 9 9 9 8 7 7 6 7 7 8 8 7 6 6 6 7 7 7 8 8 8 8 8 8 8 9 9 9 9 9 9 10 11 11 11 11 11 11 10 11 13 15 17 15 13 11 9 8 8 8 8 8 9 8 9 10 10 10 10 9 10 10 9 8 7 8 8 8 9 11 11 10 10 10 10 10 10 9 9 9 9 9 8 8 9 9 9 10 10 10 10 10 10 10 10 10 10 10 9 nan
nan 8 9 8 8 9 8 7 6 8 8 8 7 6 6 5 6 8 8 8 8 9 9 9 8 9 9 8 9 10 10 10 9 9 11 11 10 11 12 13 12 13 14 17 17 16 14 12 10 9 9 10 9 9 9 9 10 10 11 11 10 10 10 10 11 9 7 6 7 7 7 8 9 9 8 9 8 9 9 8 8 7 7 7 6 6 7 8 9 10 10 10 10 10 10 11 11 11 11 10 10 10 nan
nan 8 7 7 7 7 6 6 6 8 8 7 6 5 5 6 7 10 11 11 10 10 10 9 9 10 11 10 11 12 11 10 9 10 10 10 10 11 13 14 14 15 17 19 18 15 12 12 11 10 10 11 11 10 10 10 11 11 11 11 10 10 10 9 9 8 7 6 7 7 7 8 8 7 6 6 6 7 7 7 6 5 4 5 6 8 9 11 13 14 13 12 11 11 11 11 11 12 12 11 10 10 nan
nan 7 7 6 5 4 4 5 6 7 6 5 5 5 7 9 11 14 16 16 13 10 10 9 9 10 12 12 13 13 12 11 10 10 10 10 10 11 13 14 15 14 15 17 17 15 12 12 12 10 9 10 12 11 10 10 10 9 10 10 10 10 9 8 7 7 7 7 8 8 8 7 6 4 4 5 6 6 6 6 6 7 9 12 13 15 15 15 15 16 14 12 11 11 10 9 10 12 11 9 8 7 nan
nan 6 6 5 4 4 4 5 6 6 5 6 7 9 12 14 14 15 16 15 13 11 11 10 8 9 10 10 11 12 12 13 13 12 11 11 10 10 12 13 14 12 12 13 13 12 11 11 11 10 9 8 9 10 9 9 9 8 8 9 9 9 8 8 8 8 8 9 9 8 6 5 3 3 5 7 10 11 11 12 13 16 19 20 19 18 16 15 14 14 13 11 10 9 8 8 9 9 7 7 7 6 nan
nan 5 3 4 5 5 6 6 6 6 7 9 11 13 14 14 13 13 13 11 11 10 10 10 8 9 9 8 9 10 12 14 15 14 13 13 10 8 9 11 11 11 10 11 10 9 9 9 9 9 8 7 7 8 8 8 7 6 7 8 9 8 8 8 9 9 9 9 8 5 3 3 5 8 11 14 16 17 17 18 19 20 20 19 17 15 13 11 10 11 12 10 9 7 7 7 7 7 6 6 7 8 nan
nan 5 7 8 11 10 9 9 9 10 11 12 11 11 11 11 10 10 10 10 9 9 10 9 9 9 9 7 8 10 12 14 15 16 15 13 11 8 6 7 8 8 10 10 10 9 8 8 8 8 8 8 7 6 7 7 6 4 5 7 8 8 8 8 8 7 7 7 7 5 6 9 12 15 17 17 17 16 16 16 16 15 14 13 13 12 10 9 8 10 11 10 8 7 7 7 8 7 7 8 8 11 nan
nan 13 17 20 21 20 17 16 15 14 12 10 9 8 8 8 8 9 9 9 10 11 11 10 10 9 9 7 8 10 11 12 13 14 14 12 12 10 6 6 6 7 8 9 9 8 8 8 7 8 8 8 8 6 5 5 4 4 4 5 6 6 6 5 5 6 8 9 11 12 15 16 17 16 15 13 11 10 11 11 11 10 10 10 10 10 10 10 9 9 10 10 9 7 7 7 7 7 9 9 9 13 nan
nan 22 23 24 23 22 19 16 14 12 10 8 7 7 7 7 8 8 8 9 10 11 12 12 13 11 8 8 8 9 10 10 10 11 11 10 10 10 8 7 6 6 7 7 7 6 6 7 7 7 7 6 6 6 5 4 5 4 4 5 5 5 5 6 8 10 12 14 16 19 19 16 14 12 10 9 7 7 8 9 10 9 9 9 10 10 10 11 10 9 9 9 8 8 8 8 7 7 10 10 9 11 nan
nan 17 15 14 13 12 11 9 8 7 8 8 8 8 8 8 8 8 8 8 9 10 10 11 12 11 9 8 7 7 8 8 8 9 9 8 9 10 10 7 7 6 6 6 5 4 4 5 7 6 4 4 5 6 7 7 7 7 7 7 7 8 12 16 16 15 14 16 16 16 14 12 10 9 8 8 8 8 7 8 8 8 8 8 8 9 10 10 10 10 8 8 8 8 8 9 9 9 10 10 9 8 nan
nan 9 8 7 6 5 6 6 6 6 7 7 8 8 9 9 9 9 8 8 8 9 8 8 9 10 9 8 6 6 6 7 7 8 8 7 9 9 9 8 7 8 8 7 6 4 4 6 7 5 4 7 9 10 9 9 9 10 10 10 11 15 20 20 17 14 13 14 12 10 8 8 8 8 8 8 7 7 7 7 7 7 8 8 8 8 9 9 9 9 8 8 8 8 8 8 9 10 10 11 9 8 nan
nan 9 9 8 8 8 7 7 7 8 8 7 7 8 9 9 8 9 9 8 8 9 8 7 7 7 8 8 6 6 6 7 7 8 8 7 9 10 9 8 8 9 10 9 9 7 8 11 11 9 10 13 14 12 9 10 12 12 11 11 13 17 18 16 14 13 12 9 8 7 6 7 8 8 9 8 8 7 6 6 7 7 8 8 8 8 8 9 9 9 9 8 8 8 8 8 8 10 11 11 10 9 nan
nan 8 9 9 9 9 9 8 7 8 8 8 8 8 8 8 8 8 8 8 8 9 9 8 7 6 6 7 7 7 7 7 7 8 9 9 11 13 10 8 8 9 10 10 11 11 13 15 14 14 16 17 18 13 10 12 14 13 12 13 16 18 17 16 14 12 10 9 8 8 8 8 8 8 8 8 8 7 7 7 7 7 7 8 8 8 8 9 10 10 10 9 9 9 7 7 9 10 10 10 9 9 nan
nan 7 7 7 7 8 8 8 8 7 8 8 8 8 8 8 8 8 8 8 8 9 10 9 9 7 6 6 7 7 7 8 9 9 10 11 13 14 11 9 8 9 10 11 11 12 12 12 12 15 18 18 18 14 9 10 13 13 13 15 17 17 17 18 16 13 10 10 10 9 9 8 8 8 8 9 9 9 8 8 8 8 7 8 8 8 9 9 10 10 9 9 9 9 8 8 8 9 9 8 8 9 nan
nan 7 7 7 7 7 7 7 7 8 7 7 7 7 8 8 8 8 8 8 8 8 9 9 9 8 7 7 7 7 7 8 9 10 11 12 12 11 10 11 11 10 9 9 9 9 8 9 10 13 15 15 14 11 8 9 11 11 11 12 14 13 14 17 17 13 11 11 10 10 10 9 9 8 9 9 11 11 10 9 9 8 8 8 8 8 8 9 10 10 10 9 9 9 9 8 8 8 8 8 8 8 nan
nan 7 7 7 7 7 7 7 7 7 7 7 7 7 8 8 8 8 8 7 8 8 8 8 8 8 7 7 7 8 8 8 9 10 12 13 11 9 9 10 10 9 8 7 7 6 6 7 8 10 12 11 10 8 7 8 8 8 9 11 12 10 11 13 15 14 13 12 11 10 11 10 10 10 9 9 10 10 9 9 10 9 8 8 8 8 8 8 9 9 10 10 9 9 8 8 8 7 7 7 8 8 nan
nan 8 8 7 8 7 7 8 8 8 8 8 8 8 8 8 8 8 8 7 7 7 8 8 8 7 7 7 8 8 8 9 9 11 12 12 10 8 7 8 8 8 8 7 7 5 5 7 8 10 10 9 8 6 6 7 8 9 11 12 11 10 10 10 12 13 12 12 10 9 10 10 11 11 10 9 8 8 8 8 9 9 8 8 8 9 9 9 9 9 9 9 9 8 8 7 7 7 6 7 8 8 nan
nan 8 8 8 8 8 8 8 9 9 9 8 8 8 8 7 7 8 7 7 7 7 7 8 8 7 8 8 8 8 8 9 9 10 12 11 8 6 6 6 7 7 7 7 7 6 6 7 8 10 10 8 6 6 7 8 10 12 14 14 13 12 12 10 9 10 9 9 9 8 8 10 10 10 10 9 7 6 6 7 7 7 7 8 8 9 9 9 9 9 8 8 8 8 8 7 7 7 6 7 7 8 nan
nan 8 7 8 8 9 9 8 8 9 8 8 8 8 7 7 7 7 7 7 7 7 7 7 7 7 8 9 9 8 8 9 9 10 10 9 7 5 5 7 7 7 7 7 7 6 7 8 9 10 10 8 6 7 9 11 11 15 19 18 16 13 12 10 7 6 6 6 7 8 7 8 8 8 8 8 6 4 5 6 7 7 7 8 8 9 9 10 9 9 8 7 7 8 8 8 8 7 6 7 7 7 nan
nan 7 7 7 8 8 8 8 8 8 8 8 7 7 7 7 6 6 7 7 7 7 7 7 7 7 8 9 10 8 8 8 9 8 8 7 7 6 6 7 8 7 7 7 7 7 8 9 9 10 11 8 6 8 12 11 12 17 24 22 17 12 11 9 7 6 5 6 7 8 8 9 8 7 5 5 5 5 6 6 7 8 8 8 8 9 9 9 9 8 8 7 7 8 8 8 8 7 7 7 7 7 nan
nan 7 8 8 8 8 8 9 9 8 8 8 7 7 6 6 6 6 7 7 7 7 7 8 7 7 8 9 9 8 8 8 8 7 7 7 7 7 7 7 8 7 7 7 8 8 9 10 9 11 11 8 7 10 12 11 11 20 26 23 16 10 9 8 8 8 8 8 8 8 8 7 6 4 3 3 5 7 8 7 7 7 7 8 8 9 9 9 8 8 8 7 7 7 8 8 8 8 8 8 8 7 nan
nan 8 8 8 8 8 8 8 8 8 7 7 7 6 6 6 6 6 7 7 7 7 7 7 7 7 8 9 9 9 8 7 7 7 7 7 7 7 8 8 7 7 7 8 8 8 9 10 11 12 11 8 7 9 10 11 13 21 26 20 13 9 8 8 9 9 9 8 7 7 7 5 5 3 3 5 6 8 8 8 7 7 7 8 8 8 8 8 8 8 8 8 8 8 8 8 8 8 8 8 8 8 nan
nan 7 7 7 7 8 8 7 7 7 7 7 6 6 6 6 6 6 6 7 7 7 7 7 7 7 8 8 9 9 8 7 7 7 8 8 7 7 8 8 8 7 7 8 8 8 9 10 11 12 10 8 6 7 10 13 15 22 23 17 12 9 8 9 10 9 8 7 7 7 6 6 5 5 5 6 7 8 8 8 7 7 8 8 9 8 7 7 8 9 9 9 9 9 9 9 9 9 9 9 9 9 nan
nan 6 7 7 7 7 7 7 7 6 6 6 6 6 6 6 6 6 6 7 7 7 8 8 7 7 8 8 9 9 8 9 8 7 8 8 7 7 8 8 8 7 8 8 8 8 9 10 10 11 10 8 7 9 11 13 15 20 20 14 11 9 9 10 10 9 8 8 8 7 5 5 6 7 7 7 7 8 8 8 7 7 8 9 9 8 7 7 8 9 9 9 9 9 10 10 11 11 10 10 9 9 nan
nan 6 6 7 7 7 7 7 6 6 6 6 6 6 6 6 6 7 7 7 7 7 8 8 7 6 7 8 9 9 9 10 9 8 7 8 8 7 7 7 8 8 8 8 8 9 9 10 10 10 9 9 9 10 11 12 15 20 19 13 9 9 10 11 10 8 8 8 8 6 4 4 6 8 8 7 7 9 9 8 7 8 9 10 10 9 9 9 9 9 9 9 9 9 10 10 11 12 11 10 10 9 nan
nan 7 7 7 7 7 7 6 6 5 5 5 6 6 6 6 6 7 7 7 7 7 8 8 8 7 8 10 11 10 9 10 9 8 8 8 8 7 7 7 8 9 8 8 9 9 9 10 10 9 9 9 9 10 11 12 16 21 21 15 11 11 10 10 9 8 8 7 6 3 3 4 7 10 10 8 8 9 9 8 9 10 10 11 11 10 10 9 9 10 10 10 10 10 11 11 11 11 10 10 9 9 nan
nan 8 7 7 7 7 6 6 6 5 5 5 5 6 6 6 6 6 7 7 7 8 8 8 8 8 9 11 12 11 9 9 9 8 7 7 7 7 7 8 9 9 9 8 9 9 9 9 9 9 9 9 9 12 14 14 17 22 24 19 16 13 9 8 8 8 6 5 3 3 5 6 8 10 11 10 10 10 9 10 11 13 12 12 11 10 11 10 10 11 11 12 12 13 12 12 11 10 9 9 9 9 nan
nan 8 7 7 7 7 7 6 6 6 6 6 6 6 6 6 6 7 7 8 8 8 8 8 9 9 10 12 13 11 8 8 7 7 7 7 7 7 8 8 9 9 9 9 9 10 9 9 9 9 9 9 11 16 18 17 19 25 25 18 15 12 10 8 7 6 5 4 4 5 7 8 9 9 10 11 11 11 11 11 13 14 13 12 11 11 11 11 11 12 12 13 13 13 13 12 11 9 8 8 8 9 nan
nan 8 7 7 8 8 7 7 6 6 6 6 6 6 7 7 7 7 8 8 9 9 8 9 9 9 10 11 12 11 8 7 6 6 7 7 7 8 8 8 9 9 9 10 11 10 8 8 9 9 9 11 14 19 21 20 22 26 23 15 12 12 11 9 7 6 6 6 7 8 9 9 9 8 9 10 11 11 11 12 13 14 14 13 11 11 10 10 10 11 12 12 13 12 12 11 10 9 8 8 8 8 nan
nan 8 8 8 8 8 7 7 7 6 6 7 7 7 7 7 7 7 8 9 9 9 9 10 10 10 10 11 11 10 8 7 6 7 7 7 7 8 8 8 8 8 9 11 12 9 6 8 10 10 11 15 18 21 21 21 21 21 17 12 9 10 9 7 7 7 7 8 9 10 11 11 11 10 9 9 10 11 12 12 12 13 13 12 11 10 9 8 8 8 10 11 11 11 11 10 10 9 8 8 7 7 nan
nan 7 8 8 8 8 7 7 7 7 7 7 7 7 7 7 7 8 8 9 9 9 9 11 10 10 10 10 10 9 7 7 6 7 7 7 8 8 8 8 8 8 10 10 10 8 8 11 12 13 15 18 21 21 21 19 17 13 9 7 6 7 7 7 7 7 8 9 11 12 13 14 15 15 13 11 10 10 11 12 12 12 11 11 10 10 11 11 9 7 7 9 10 10 10 10 10 10 9 8 7 7 nan
nan 8 8 9 9 9 8 7 7 7 7 7 7 7 7 8 8 9 9 10 9 10 10 11 10 9 9 9 9 8 7 7 7 6 6 7 8 8 8 8 9 9 10 10 10 10 12 13 14 16 18 20 20 19 17 15 12 9 6 5 5 5 6 7 7 8 9 11 12 13 13 14 16 16 15 13 10 9 10 11 11 11 10 10 10 10 14 15 14 9 7 7 8 9 9 9 9 9 9 8 8 7 nan
nan 9 9 9 10 9 9 8 8 7 7 7 7 7 8 8 8 9 10 10 10 10 11 10 10 8 8 9 9 8 7 8 8 6 6 7 7 8 8 9 9 10 11 10 11 12 14 15 16 17 18 18 17 14 12 10 8 8 6 5 6 6 7 8 9 11 12 14 14 13 12 12 13 13 14 13 12 10 10 10 10 10 10 9 9 11 14 13 11 10 8 6 5 7 9 9 8 9 9 8 8 8 nan
nan 9 9 9 10 10 9 9 8 7 7 7 7 7 8 8 9 9 10 10 11 11 10 10 9 8 8 8 8 8 8 8 7 7 7 7 8 8 9 9 9 10 11 11 13 15 16 16 16 15 14 14 13 11 9 7 7 6 6 7 7 7 7 9 11 12 14 14 13 11 11 11 12 12 13 13 13 12 11 10 10 10 10 9 10 12 13 10 8 7 8 6 3 3 6 9 9 9 8 8 8 8 nan
nan 9 9 10 10 10 9 8 8 7 7 7 8 8 8 8 9 10 10 10 11 10 10 9 9 8 8 8 8 8 8 8 7 6 6 7 8 9 9 9 10 11 11 13 14 17 17 16 14 11 11 11 10 9 7 7 8 8 8 8 7 8 9 11 12 12 13 11 9 8 10 11 12 13 13 13 12 11 11 11 11 10 10 10 11 13 12 10 7 7 7 7 5 1 2 7 9 9 8 8 8 9 nan
nan 9 10 10 11 10 9 8 7 7 8 8 8 8 9 10 10 10 10 10 11 10 9 9 9 9 8 8 7 8 9 7 7 7 8 8 8 8 9 9 10 11 12 14 15 17 17 15 11 9 9 9 9 8 7 8 9 9 9 10 11 12 13 12 11 11 10 8 7 9 11 11 12 13 14 13 11 10 10 11 11 11 11 10 11 12 11 9 8 8 8 8 8 4 2 4 7 8 8 8 8 9 nan
nan 9 10 10 11 11 9 8 7 7 8 8 7 8 10 11 10 9 9 10 10 9 8 8 9 9 8 8 7 8 9 8 6 7 9 9 9 8 9 9 9 10 12 13 15 18 17 14 11 10 9 9 9 9 8 9 10 10 11 13 14 14 12 11 11 11 8 8 9 11 11 11 11 13 13 12 11 10 10 10 10 11 10 9 8 9 10 10 10 10 10 11 11 7 3 3 6 8 8 9 9 10 nan
nan 9 9 10 10 11 10 9 8 7 7 7 7 8 10 11 10 9 9 10 10 8 8 8 8 8 8 8 8 8 8 9 8 8 8 8 8 8 9 9 8 10 11 12 14 16 16 14 11 11 10 10 10 10 10 11 10 11 13 13 13 12 11 11 11 10 9 9 10 12 12 11 11 12 13 12 11 9 8 9 9 10 10 8 5 8 11 13 14 15 15 16 16 11 6 5 6 8 9 10 10 11 nan
nan 10 10 10 10 10 11 11 10 9 9 9 9 9 9 10 11 10 11 11 10 9 9 9 9 8 8 7 8 8 8 9 9 8 8 7 8 8 9 9 9 9 10 10 11 14 15 13 11 10 11 11 11 12 12 12 12 13 13 13 13 14 13 11 10 8 9 10 11 12 12 11 11 11 12 11 11 10 9 9 9 10 9 5 4 9 14 18 22 25 26 26 24 18 13 10 8 8 9 10 11 12 nan
nan nan nan nan nan nan nan nan nan nan nan nan nan nan nan nan nan nan nan nan nan nan nan nan nan nan nan nan nan nan nan nan nan nan nan nan nan nan nan nan nan nan nan nan nan nan nan nan nan nan nan nan nan nan nan nan nan nan nan nan nan nan nan nan nan nan nan nan nan nan nan nan nan nan nan nan nan nan nan nan nan nan nan nan nan nan nan nan nan nan nan nan nan nan nan nan nan nan nan nan nan nan nan
CAPE
nan nan nan nan nan nan nan nan nan nan nan nan nan nan nan nan nan 13 17 nan nan nan nan nan nan nan nan nan nan nan nan nan nan nan nan nan nan nan nan nan nan nan nan nan nan nan nan nan nan nan nan nan nan nan nan nan nan nan nan nan nan nan nan nan nan nan nan nan nan nan nan nan nan nan nan nan nan nan nan nan nan nan nan nan nan nan nan nan nan nan nan nan nan nan nan nan nan nan nan nan nan nan nan
nan nan nan nan nan nan nan nan nan nan nan nan nan nan nan nan nan 2 10 nan nan nan nan nan nan nan nan nan nan nan nan nan nan nan nan nan nan nan nan nan nan nan nan nan nan nan nan nan nan nan nan nan nan nan nan nan nan nan nan nan nan nan nan nan nan nan nan nan nan nan nan nan nan nan nan nan nan nan nan nan nan nan nan nan nan nan nan nan nan nan nan nan nan nan nan nan nan nan nan nan nan nan nan
nan nan nan nan nan nan nan nan nan nan nan nan nan nan nan nan nan nan nan nan nan nan nan nan nan nan nan nan nan nan nan nan nan nan nan nan nan nan nan nan nan nan nan nan nan nan nan nan nan nan nan nan nan nan nan nan nan nan nan nan nan nan nan nan nan nan nan nan nan nan nan nan nan nan nan nan nan nan nan nan nan nan nan nan nan nan nan nan nan nan nan nan nan nan nan nan nan nan nan nan nan nan nan
nan nan nan nan nan nan nan nan nan nan nan nan nan nan nan nan nan nan nan nan nan nan nan nan nan nan nan nan nan nan nan nan nan nan nan nan nan nan nan nan nan nan nan nan nan nan nan nan nan nan nan nan nan nan nan nan nan nan nan nan nan nan nan nan nan nan nan nan nan nan nan nan nan nan nan nan nan nan nan nan nan nan nan nan nan nan nan nan nan nan nan nan nan nan nan nan nan nan nan nan nan nan nan
nan nan nan nan nan nan nan nan nan nan nan nan nan nan nan nan nan nan nan nan nan nan nan nan nan nan nan nan nan nan nan nan nan nan nan nan nan nan nan nan nan nan nan nan nan nan nan nan nan nan nan nan nan nan nan nan nan nan nan nan nan nan nan nan nan nan nan nan nan nan nan nan nan nan nan nan nan nan nan nan nan nan nan nan nan nan nan nan nan nan nan nan nan nan nan nan nan nan nan nan nan nan nan
nan nan nan nan nan nan nan nan nan nan nan nan nan nan nan nan nan nan nan nan nan nan nan nan nan nan nan nan nan nan nan nan nan nan nan nan nan nan nan nan nan nan nan 34 34 nan nan nan nan nan nan nan nan nan nan nan nan nan nan nan nan nan nan nan nan nan nan nan nan nan nan nan nan nan nan nan nan nan nan nan nan nan nan nan nan nan nan nan nan nan nan nan nan nan nan nan nan nan nan nan nan nan nan
nan nan nan nan nan nan nan nan nan nan nan nan nan nan nan nan nan nan nan nan nan nan nan nan nan nan nan nan nan nan nan nan nan nan nan nan nan nan nan nan nan nan nan nan nan nan nan nan nan nan nan nan nan nan nan nan nan nan nan nan nan nan nan nan nan nan nan nan nan nan nan nan nan nan nan nan nan nan nan nan nan nan nan nan nan nan nan nan nan nan nan nan nan nan nan nan nan nan nan nan nan nan nan
nan nan nan nan nan nan nan nan nan nan nan nan nan nan nan nan nan nan nan nan nan nan nan nan nan nan nan nan nan nan nan nan nan nan nan nan nan nan nan nan nan nan nan nan nan nan nan nan nan nan nan nan nan nan nan nan nan nan nan nan nan nan nan nan nan nan nan nan nan nan nan nan nan nan nan nan nan nan nan nan nan nan nan nan nan nan nan nan nan nan nan nan nan nan nan nan nan nan nan nan nan nan nan
nan nan nan nan nan nan nan nan nan nan nan nan nan nan nan nan nan nan nan nan nan nan nan nan nan nan nan nan nan nan nan nan nan nan nan nan nan nan nan nan nan nan nan nan nan nan nan nan nan nan nan nan nan nan nan nan nan nan nan nan nan nan nan nan nan nan nan nan nan nan nan nan nan nan nan nan nan nan nan nan nan nan nan nan nan nan nan nan nan nan nan nan nan nan nan nan nan nan nan nan nan nan nan
nan nan nan nan nan nan nan nan nan nan nan nan nan nan nan nan nan nan nan nan nan nan nan nan nan nan nan nan nan nan nan nan nan nan nan nan nan nan nan nan nan nan nan nan nan nan nan nan nan nan nan nan nan nan nan nan nan nan nan nan nan nan nan nan nan nan nan nan nan nan nan nan nan nan nan nan nan nan nan nan nan nan nan nan nan nan nan nan nan nan nan nan nan nan nan nan nan nan nan nan nan nan nan
nan nan nan nan nan nan nan nan nan nan nan nan nan nan nan nan nan nan nan nan nan nan nan nan nan nan nan nan nan nan nan nan nan nan nan nan nan nan nan nan nan nan nan nan nan nan nan nan nan nan nan nan nan nan nan nan nan nan nan nan nan nan nan nan nan nan nan nan nan nan nan nan nan nan nan nan nan nan nan nan nan nan nan nan nan nan nan nan nan nan nan nan nan nan nan nan nan nan nan nan nan nan nan
nan nan nan nan nan nan nan nan nan nan nan nan nan nan nan nan nan nan nan nan nan nan nan nan nan nan nan nan nan nan nan nan nan nan nan nan nan nan nan nan nan nan nan nan nan nan nan nan nan nan nan nan nan nan nan nan nan nan nan nan nan nan nan nan nan nan nan nan nan nan nan nan nan nan nan nan nan nan nan nan nan nan nan nan nan nan nan nan nan nan nan nan nan nan nan nan nan nan nan nan nan nan nan
nan nan nan nan nan nan nan nan nan nan nan nan nan nan nan nan nan nan nan nan nan nan nan nan nan nan nan nan nan nan nan nan nan nan nan nan nan nan nan nan nan nan nan nan nan nan nan nan nan nan nan nan nan nan nan nan nan nan nan nan nan nan nan nan nan nan nan nan nan nan nan nan nan nan nan nan nan nan nan nan nan nan nan nan nan nan nan nan nan nan nan nan nan nan nan nan nan nan nan nan nan nan nan
nan nan nan nan nan nan nan nan nan nan nan nan nan nan nan nan nan nan nan nan nan nan nan nan nan nan nan nan nan nan nan nan nan nan nan nan nan nan nan nan nan nan nan nan nan nan nan nan nan nan nan nan nan nan nan nan nan nan nan nan nan nan nan nan nan nan nan nan nan nan nan nan nan nan nan nan nan nan nan nan nan nan nan nan nan nan nan nan nan nan nan nan nan nan nan nan nan nan nan nan nan nan nan
nan nan nan nan nan nan nan nan nan nan nan nan nan nan nan nan nan nan nan nan nan nan nan nan nan nan nan nan nan nan nan nan nan nan nan nan nan nan nan nan nan nan nan nan nan nan nan nan nan nan nan nan nan nan nan nan nan nan nan nan nan nan nan nan nan nan nan nan nan nan nan nan nan nan nan nan nan nan nan nan nan nan nan nan nan nan nan nan nan nan nan nan nan nan nan nan nan nan nan nan nan nan nan
nan nan nan nan nan nan nan nan nan nan nan nan nan nan nan nan nan nan nan nan nan nan nan nan nan nan nan nan nan nan nan nan nan nan nan nan nan nan nan nan nan nan nan nan nan nan nan nan nan nan nan nan nan nan nan nan nan nan nan nan nan nan nan nan nan nan nan nan nan nan nan nan nan nan nan nan nan nan nan nan nan nan nan nan nan nan nan nan nan nan nan nan nan nan nan nan nan nan nan nan nan nan nan
nan nan nan nan nan nan nan nan nan nan nan nan nan nan nan nan nan nan nan nan nan nan nan nan nan nan nan nan nan nan nan nan nan nan nan nan nan nan nan nan nan nan nan nan nan nan nan nan nan nan nan nan nan nan nan nan nan nan nan nan nan nan nan nan nan nan nan nan nan nan nan nan nan nan nan nan nan nan nan nan nan nan nan nan nan nan nan nan nan nan nan nan nan nan nan nan nan nan nan nan nan nan nan
nan nan nan nan nan nan nan nan nan nan nan nan nan nan nan nan nan nan nan nan nan nan nan nan nan nan nan nan nan nan nan nan nan nan nan nan nan nan nan nan nan nan nan nan nan nan nan nan nan nan nan nan nan nan nan nan nan nan nan nan nan nan nan nan nan nan nan nan nan nan nan nan nan nan nan nan nan nan nan nan nan nan nan nan nan nan nan nan nan nan nan nan nan nan nan nan nan nan nan nan nan nan nan
nan nan nan nan nan nan nan nan nan nan nan nan nan nan nan nan nan nan nan nan nan nan nan nan nan nan nan nan nan nan nan nan nan nan nan nan nan nan nan nan nan nan nan nan nan nan nan nan nan nan nan nan nan nan nan nan nan nan nan nan nan nan nan nan nan nan nan nan nan nan nan nan nan nan nan nan nan nan nan nan nan nan nan nan nan nan nan nan nan nan nan nan nan nan nan nan nan nan nan nan nan nan nan
nan nan nan nan nan nan nan nan nan nan nan nan nan nan nan nan nan nan nan nan nan nan nan nan nan nan nan nan nan nan nan nan nan nan nan nan nan nan nan nan nan nan nan nan nan nan nan nan nan nan nan nan nan nan nan nan nan nan nan nan nan nan nan nan nan nan nan nan nan nan nan nan nan nan nan nan nan nan nan nan nan nan nan nan nan nan nan nan nan nan nan nan nan nan nan nan nan nan nan nan nan nan nan
nan nan nan nan nan nan nan nan nan nan nan nan nan nan nan nan nan nan nan nan nan nan nan nan nan nan nan nan nan nan nan nan nan nan nan nan nan nan nan nan nan nan nan nan nan nan nan nan nan nan nan nan nan nan nan nan nan nan nan nan nan nan nan nan nan nan nan nan nan nan nan nan nan nan nan nan nan nan nan nan nan nan nan nan nan nan nan nan nan nan nan nan nan nan nan nan nan nan nan nan nan nan nan
nan nan nan nan nan nan nan nan nan nan nan nan nan nan nan nan nan nan nan nan nan nan nan nan nan nan nan nan nan nan nan nan nan nan nan nan nan nan nan nan nan nan nan nan nan nan nan nan nan nan nan nan nan nan nan nan nan nan nan nan nan nan nan nan nan nan nan nan nan nan nan nan nan nan nan nan nan nan nan nan nan nan nan nan nan nan nan nan nan nan nan nan nan nan nan nan nan nan nan nan nan nan nan
nan nan nan nan nan nan nan nan nan nan nan nan nan nan nan nan nan nan nan nan nan nan nan nan nan nan nan nan nan nan nan nan nan nan nan nan nan nan nan nan nan nan nan nan nan nan nan nan nan nan nan nan nan nan nan nan nan nan nan nan nan nan nan nan nan nan nan nan nan nan nan nan nan nan nan nan nan nan nan nan nan nan nan nan nan nan nan nan nan nan nan nan nan nan nan nan nan nan nan nan nan nan nan
nan nan nan nan nan nan nan nan nan nan nan nan nan nan nan nan nan nan nan nan nan nan nan nan nan nan nan nan nan nan nan nan nan nan nan nan nan nan nan nan nan nan nan nan nan nan nan nan nan nan nan nan nan nan nan nan nan nan nan nan nan nan nan nan nan nan nan nan nan nan nan nan nan nan nan nan nan nan nan nan nan nan nan nan nan nan nan nan nan nan nan nan nan nan nan nan nan nan nan nan nan nan nan
nan nan nan nan nan nan nan nan nan nan nan nan nan nan nan nan nan nan nan nan nan nan nan nan nan nan nan nan nan nan nan nan nan nan nan nan nan nan nan nan nan nan nan nan nan nan nan nan nan nan nan nan nan nan nan nan nan nan nan nan nan nan nan nan nan nan nan nan nan nan nan nan nan nan nan nan nan nan nan nan nan nan nan nan nan nan nan nan nan nan nan nan nan nan nan nan nan nan nan nan nan nan nan
nan nan nan nan nan nan nan nan nan nan nan nan nan nan nan nan nan nan nan nan nan nan nan nan nan nan nan nan nan nan nan nan nan nan nan nan nan nan nan nan nan nan nan nan nan nan nan nan nan nan nan nan nan nan nan nan nan nan nan nan nan nan nan nan nan nan nan nan nan nan nan nan nan nan nan nan nan nan nan nan nan nan nan nan nan nan nan nan nan nan nan nan nan nan nan nan nan nan nan nan nan nan nan
nan nan nan nan nan nan nan nan nan nan nan nan nan nan nan nan nan nan nan nan nan nan nan nan nan nan nan nan nan nan nan nan nan nan nan nan nan nan nan nan nan nan nan nan nan nan nan nan nan nan nan nan nan nan nan nan nan nan nan nan nan nan nan nan nan nan nan nan nan nan nan nan nan nan nan nan nan nan nan nan nan nan nan nan nan nan nan nan nan nan nan nan nan nan nan nan nan nan nan nan nan nan nan
nan nan nan nan nan nan nan nan nan nan nan nan nan nan nan nan nan nan nan nan nan nan nan nan nan nan nan nan nan nan nan nan nan nan nan nan nan nan nan nan nan nan nan nan nan nan nan nan nan nan nan nan nan nan nan nan nan nan nan nan nan nan nan nan nan nan nan nan nan nan nan nan nan nan nan nan nan nan nan nan nan nan nan nan nan nan nan nan nan nan nan nan nan nan nan nan nan nan nan nan nan nan nan
nan nan nan nan nan nan nan nan nan nan nan nan nan nan nan nan nan nan nan nan nan nan nan nan nan nan nan nan nan nan nan nan nan nan nan nan nan nan nan nan nan nan nan nan nan nan nan nan nan nan nan nan nan nan nan nan nan nan nan nan nan nan nan nan nan nan nan nan nan nan nan nan nan nan nan nan nan nan nan nan nan nan nan nan nan nan nan nan nan nan nan nan nan nan nan nan nan nan nan nan nan nan nan
nan nan nan nan nan nan nan nan nan nan nan nan nan nan nan nan nan nan nan nan nan nan nan nan nan nan nan nan nan nan nan nan nan nan nan nan nan nan nan nan nan nan nan nan nan nan nan nan nan nan nan nan nan nan nan nan nan nan nan nan nan nan nan nan nan nan nan nan nan nan nan nan nan nan nan nan nan nan nan nan nan nan nan nan nan nan nan nan nan nan nan nan nan nan nan nan nan nan nan nan nan nan nan
nan nan nan nan nan nan nan nan nan nan nan nan nan nan nan nan nan nan nan nan nan nan nan nan nan nan nan nan nan nan nan nan nan nan nan nan nan nan nan nan nan nan nan nan nan nan nan nan nan nan nan nan nan nan nan nan nan nan nan nan nan nan nan nan nan nan nan nan nan nan nan nan nan nan nan nan nan nan nan nan nan nan nan nan nan nan nan nan nan nan nan nan nan nan nan nan nan nan nan nan nan nan nan
nan nan nan nan nan nan nan nan nan nan nan nan nan nan nan nan nan nan nan nan nan nan nan nan nan nan nan nan nan nan nan nan nan nan nan nan nan nan nan nan nan nan nan nan nan nan nan nan nan nan nan nan nan nan nan nan nan nan nan nan nan nan nan nan nan nan nan nan nan nan nan nan nan nan nan nan nan nan nan nan nan nan nan nan nan nan nan nan nan nan nan nan nan nan nan nan nan nan nan nan nan nan nan
nan nan nan nan nan nan nan nan nan nan nan nan nan nan nan nan nan nan nan nan nan nan nan nan nan nan nan nan nan nan nan nan nan nan nan nan nan nan nan nan nan nan nan nan nan nan nan nan nan nan nan nan nan nan nan nan nan nan nan nan nan nan nan nan nan nan nan nan nan nan nan nan nan nan nan nan nan nan nan nan nan nan nan nan nan nan nan nan nan nan nan nan nan nan nan nan nan nan nan nan nan nan nan
nan nan nan nan nan nan nan nan nan nan nan nan nan nan nan nan nan nan nan nan nan nan nan nan nan nan nan nan nan nan nan nan nan nan nan nan nan nan nan nan nan nan nan nan nan nan nan nan nan nan nan nan nan nan nan nan nan nan nan nan nan nan nan nan nan nan nan nan nan nan nan nan nan nan nan nan nan nan nan nan nan nan nan nan nan nan nan nan nan nan nan nan nan nan nan nan nan nan nan nan nan nan nan
nan nan nan nan nan nan nan nan nan nan nan nan nan nan nan nan nan nan nan nan nan nan nan nan nan nan nan nan nan nan nan nan nan nan nan nan nan nan nan nan nan nan nan nan nan nan nan nan nan nan nan nan nan nan nan nan nan nan nan nan nan nan nan nan nan nan nan nan nan nan nan nan nan nan nan nan nan nan nan nan nan nan nan nan nan nan nan nan nan nan nan nan nan nan nan nan nan nan nan nan nan nan nan
nan nan nan nan nan nan nan nan nan nan nan nan nan nan nan nan nan nan nan nan nan nan nan nan nan nan nan nan nan nan nan nan nan nan nan nan nan nan nan nan nan nan nan nan nan nan nan nan nan nan nan nan nan nan nan nan nan nan nan nan nan nan nan nan nan nan nan nan nan nan nan nan nan nan nan nan nan nan nan nan nan nan nan nan nan nan nan nan nan nan nan nan nan nan nan nan nan nan nan nan nan nan nan
nan nan nan nan nan nan nan nan nan nan nan nan nan nan nan nan nan nan nan nan nan nan nan nan nan nan nan nan nan nan nan nan nan nan nan nan nan nan nan nan nan nan nan nan nan nan nan nan nan nan nan nan nan nan nan nan nan nan nan nan nan nan nan nan nan nan nan nan nan nan nan nan nan nan nan nan nan nan nan nan nan nan nan nan nan nan nan nan nan nan nan nan nan nan nan nan nan nan nan nan nan nan nan
nan nan nan nan nan nan nan nan nan nan nan nan nan nan nan nan nan nan nan nan nan nan nan nan nan nan nan nan nan nan nan nan nan nan nan nan nan nan nan nan nan nan nan nan nan nan nan nan nan nan nan nan nan nan nan nan nan nan nan nan nan nan nan nan nan nan nan nan nan nan nan nan nan nan nan nan nan nan nan nan nan nan nan nan nan nan nan nan nan nan nan nan nan nan nan nan nan nan nan nan nan nan nan
nan nan nan nan nan nan nan nan nan nan nan nan nan nan nan nan nan nan nan nan nan nan nan nan nan nan nan nan nan nan nan nan nan nan nan nan nan nan nan nan nan nan nan nan nan nan nan nan nan nan nan nan nan nan nan nan nan nan nan nan nan nan nan nan nan nan nan nan nan nan nan nan nan nan nan nan nan nan nan nan nan nan nan nan nan nan nan nan nan nan nan nan nan nan nan nan nan nan nan nan nan nan nan
nan nan nan nan nan nan nan nan nan nan nan nan nan nan nan nan nan nan nan nan nan nan nan nan nan nan nan nan nan nan nan nan nan nan nan nan nan nan nan nan nan nan nan nan nan nan nan nan nan nan nan nan nan nan nan nan nan nan nan nan nan nan nan nan nan nan nan nan nan nan nan nan nan nan nan nan nan nan nan nan nan nan nan nan nan nan nan nan nan nan nan nan nan nan nan nan nan nan nan nan nan nan nan
nan nan nan nan nan nan nan nan nan nan nan nan nan nan nan nan nan nan nan nan nan nan nan nan nan nan nan nan nan nan nan nan nan nan nan nan nan nan nan nan nan nan nan nan nan nan nan nan nan nan nan nan nan nan nan nan nan nan nan nan nan nan nan nan nan nan nan nan nan nan nan nan nan nan nan nan nan nan nan nan nan nan nan nan nan nan nan nan nan nan nan nan nan nan nan nan nan nan nan nan nan nan nan
nan nan nan nan nan nan nan nan nan nan nan nan nan nan nan nan nan nan nan nan nan nan nan nan nan nan nan nan nan nan nan nan nan nan nan nan nan nan nan nan nan nan nan nan nan nan nan nan nan nan nan nan nan nan nan nan nan nan nan nan nan nan nan nan nan nan nan nan nan nan nan nan nan nan nan nan nan nan nan nan nan nan nan nan nan nan nan nan nan nan nan nan nan nan nan nan nan nan nan nan nan nan nan
nan nan nan nan nan nan nan nan nan nan nan nan nan nan nan nan nan nan nan nan nan nan nan nan nan nan nan nan nan nan nan nan nan nan nan nan nan nan nan nan nan nan nan nan nan nan nan nan nan nan nan nan nan nan nan nan nan nan nan nan nan nan nan nan nan nan nan nan nan nan nan nan nan nan nan nan nan nan nan nan nan nan nan nan nan nan nan nan nan nan nan nan nan nan nan nan nan nan nan nan nan nan nan
nan nan nan nan nan nan nan nan nan nan nan nan nan nan nan nan nan nan nan nan nan nan nan nan nan nan nan nan nan nan nan nan nan nan nan nan nan nan nan nan nan nan nan nan nan nan nan nan nan nan nan nan nan nan nan nan nan nan nan nan nan nan nan nan nan nan nan nan nan nan nan nan nan nan nan nan nan nan nan nan nan nan nan nan nan nan nan nan nan nan nan nan nan nan nan nan nan nan nan nan nan nan nan
nan nan nan nan nan nan nan nan nan nan nan nan nan nan nan nan nan nan nan nan nan nan nan nan nan nan nan nan nan nan nan nan nan nan nan nan nan nan nan nan nan nan nan nan nan nan nan nan nan nan nan nan nan nan nan nan nan nan nan nan nan nan nan nan nan nan nan nan nan nan nan nan nan nan nan nan nan nan nan nan nan nan nan nan nan nan nan nan nan nan nan nan nan nan nan nan nan nan nan nan nan nan nan
nan nan nan nan nan nan nan nan nan nan nan nan nan nan nan nan nan nan nan nan nan nan nan nan nan nan nan nan nan nan nan nan nan nan nan nan nan nan nan nan nan nan nan nan nan nan nan nan nan nan nan nan nan nan nan nan nan nan nan nan nan nan nan nan nan nan nan nan nan nan nan nan nan nan nan nan nan nan nan nan nan nan nan nan nan nan nan nan nan nan nan nan nan nan nan nan nan nan nan nan nan nan nan
nan nan nan nan nan nan nan nan nan nan nan nan nan nan nan nan nan nan nan nan nan nan nan nan nan nan nan nan nan nan nan nan nan nan nan nan nan nan nan nan nan nan nan nan nan nan nan nan nan nan nan nan nan nan nan nan nan nan nan nan nan nan nan nan nan nan nan nan nan nan nan nan nan nan nan nan nan nan nan nan nan nan nan nan nan nan nan nan nan nan nan nan nan nan nan nan nan nan nan nan nan nan nan
nan nan nan nan nan nan nan nan nan nan nan nan nan nan nan nan nan nan nan nan nan nan nan nan nan nan nan nan nan nan nan nan nan nan nan nan nan nan nan nan nan nan nan nan nan nan nan nan nan nan nan nan nan nan nan nan nan nan nan nan nan nan nan nan nan nan nan nan nan nan nan nan nan nan nan nan nan nan nan nan nan nan nan nan nan nan nan nan nan nan nan nan nan nan nan nan nan nan nan nan nan nan nan
nan nan nan nan nan nan nan nan nan nan nan nan nan nan nan nan nan nan nan nan nan nan nan nan nan nan nan nan nan nan nan nan nan nan nan nan nan nan nan nan nan nan nan nan nan nan nan nan nan nan nan nan nan nan nan nan nan nan nan nan nan nan nan nan nan nan nan nan nan nan nan nan nan nan nan nan nan nan nan nan nan nan nan nan nan nan nan nan nan nan nan nan nan nan nan nan nan nan nan nan nan nan nan
nan nan nan nan nan nan nan nan nan nan nan nan nan nan nan nan nan nan nan nan nan nan nan nan nan nan nan nan nan nan nan nan nan nan nan nan nan nan nan nan nan nan nan nan nan nan nan nan nan nan nan nan nan nan nan nan nan nan nan nan nan nan nan nan nan nan nan nan nan nan nan nan nan nan nan nan nan nan nan nan nan nan nan nan nan nan nan nan nan nan nan nan nan nan nan nan nan nan nan nan nan nan nan
nan nan nan nan nan nan nan nan nan nan nan nan nan nan nan nan nan nan nan nan nan nan nan nan nan nan nan nan nan nan nan nan nan nan nan nan nan nan nan nan nan nan nan nan nan nan nan nan nan nan nan nan nan nan nan nan nan nan nan nan nan nan nan nan nan nan nan nan nan nan nan nan nan nan nan nan nan nan nan nan nan nan nan nan nan nan nan nan nan nan nan nan nan nan nan nan nan nan nan nan nan nan nan
nan nan nan nan nan nan nan nan nan nan nan nan nan nan nan nan nan nan nan nan nan nan nan nan nan nan nan nan nan nan nan nan nan nan nan nan nan nan nan nan nan nan nan nan nan nan nan nan nan nan nan nan nan nan nan nan nan nan nan nan nan nan nan nan nan nan nan nan nan nan nan nan nan nan nan nan nan nan nan nan nan nan nan nan nan nan nan nan nan nan nan nan nan nan nan nan nan nan nan nan nan nan nan
nan nan nan nan nan nan nan nan nan nan nan nan nan nan nan nan nan nan nan nan nan nan nan nan nan nan nan nan nan nan nan nan nan nan nan nan nan nan nan nan nan nan nan nan nan nan nan nan nan nan nan nan nan nan nan nan nan nan nan nan nan nan nan nan nan nan nan nan nan nan nan nan nan nan nan nan nan nan nan nan nan nan nan nan nan nan nan nan nan 0 nan nan nan nan nan nan nan nan nan nan nan nan nan
nan nan nan nan nan nan nan nan nan nan nan nan nan nan nan nan nan nan nan nan nan nan nan nan nan nan nan nan nan nan nan nan nan nan nan nan nan nan nan nan nan nan nan nan nan nan nan nan nan nan nan nan nan nan nan nan nan nan nan nan nan nan nan nan nan nan nan nan nan nan nan nan nan nan nan nan nan nan nan nan nan nan nan nan nan nan nan nan nan 0 nan nan nan nan nan nan nan nan nan nan nan nan nan
nan nan nan nan nan nan nan nan nan nan nan nan nan nan nan nan nan nan nan nan nan nan nan nan nan nan nan nan nan nan nan nan nan nan nan nan nan nan nan nan nan nan nan nan nan 1 0 0 nan nan nan nan nan nan nan nan nan nan nan nan nan nan nan nan nan nan nan nan nan nan nan nan nan nan nan nan nan nan nan nan nan nan nan nan nan nan nan nan nan nan nan nan nan nan nan nan nan nan nan nan nan nan nan
nan nan nan nan nan nan nan nan nan nan nan nan nan nan nan nan nan nan nan nan nan nan nan nan nan nan nan nan nan nan nan nan nan nan nan nan nan nan nan nan nan nan nan nan nan 5 0 0 nan nan nan nan nan nan nan nan nan nan nan nan nan nan nan nan nan nan nan nan nan nan nan nan nan nan nan nan nan nan nan nan nan nan nan nan nan nan nan nan nan nan nan nan nan nan nan nan nan nan nan nan nan nan nan
nan nan nan nan nan nan nan nan nan nan nan nan nan nan nan nan nan nan nan nan nan nan nan nan nan nan nan nan nan nan nan nan nan nan nan nan nan nan nan nan nan nan nan 0 0 3 nan nan nan nan nan nan nan nan nan nan nan nan nan nan nan nan nan nan nan nan nan nan nan nan nan nan nan nan nan nan nan nan nan nan nan nan nan nan nan nan nan nan nan nan nan nan nan nan nan nan nan nan nan nan nan nan nan
nan nan nan nan nan nan nan nan nan nan nan nan nan nan nan nan nan nan nan nan nan nan nan nan nan nan nan nan nan nan nan nan nan nan nan nan nan nan nan nan nan nan nan nan nan nan nan nan nan nan nan nan nan nan nan nan nan nan nan nan nan nan nan nan nan nan nan nan nan nan nan nan nan nan nan nan nan nan nan nan nan nan nan nan nan nan nan nan nan nan nan nan nan 0 nan nan nan nan nan nan nan nan nan
nan nan nan nan nan nan nan nan nan nan nan nan nan nan nan nan nan nan nan nan nan nan nan nan nan nan nan nan nan nan nan nan nan nan nan nan nan nan nan nan nan nan nan nan nan nan nan nan nan nan nan nan nan nan nan nan nan nan nan nan nan nan nan nan nan nan nan nan nan nan nan nan nan nan nan nan nan nan nan nan nan nan nan nan nan nan nan nan nan nan nan nan 0 6 nan nan nan nan nan nan nan nan nan